Regional Weather Roundup
Issued by NWS Nashville, TN

Home | Current Version | Previous Version | Text Only | Print | Product List | Glossary On
Versions: 1 2 3 4 5 6 7 8 9 10 11 12 13 14 15 16 17 18 19 20 21 22 23 24 25 26 27
000
ASUS44 KOHX 180410
RWROHX
MIDDLE TENNESSEE HOURLY WEATHER ROUNDUP
NATIONAL WEATHER SERVICE NASHVILLE TN
1100 PM CDT TUE OCT 17 2017

NOTE: "FAIR" INDICATES FEW OR NO CLOUDS BELOW 12,000 FEET WITH
NO SIGNIFICANT WEATHER AND/OR OBSTRUCTIONS TO VISIBILITY.

* THESE REPORTS ARE NOT UNDER NWS QUALITY CONTROL AND MAY NOT
  REPORT WEATHER SUCH AS PRECIPITATION AND FOG.


TNZ005>011-023>034-057-059-062>066-078-080-180500
...NORTHERN MIDDLE TENNESSEE...

CITY           SKY/WX    TMP DP  RH WIND       PRES   REMARKS
CLARKSVILLE    CLEAR     46  44  93 CALM      30.27S
CROSSVILLE     CLEAR     43  40  89 CALM      30.31S
GALLATIN       CLEAR     46  43  87 CALM      30.30F
DICKSON          N/A     47  43  86 CALM      30.26S
LEBANON        CLEAR     43  42  96 CALM      30.26F
NASHVILLE      CLEAR     50  45  83 S3        30.28S
PORTLAND       CLEAR     45  45 100 S3        30.27S FOG
SMYRNA         CLEAR     45  44  97 CALM      30.29S
SPARTA         CLEAR     41  39  93 CALM      30.28S FOG
SPRINGFIELD    CLEAR     45  45 100 CALM      30.25S
WEST NASHVILLE CLEAR     48  45  87 CALM      30.25F
$$
TNZ056-058-060-061-075>077-079-093>097-180500
...SOUTHERN MIDDLE TENNESSEE...

CITY           SKY/WX    TMP DP  RH WIND       PRES   REMARKS
COLUMBIA       CLEAR     48  46  93 CALM      30.25F
FAYETTEVILLE   CLEAR     50  45  81 CALM      30.27S
MURFREESBORO   CLEAR     49  45  86 CALM      30.28S
PULASKI        CLEAR     45  45 100 CALM      30.28S
SHELBYVILLE    CLEAR     46  45  93 CALM      30.28S FOG
TULLAHOMA      CLEAR     45  43  93 CALM      30.29S
WINCHESTER     CLEAR     48  46  93 CALM        N/A
$$


...KEY TO REMARKS...
VSB - VISIBILITY IN MILES
WCI - WIND CHILL INDEX
HX  - HEAT INDEX





USA.gov is the U.S. government's official web portal to all federal, state and local government web resources and services.